TimeCDT,TemperatureF,Dew PointF,Humidity,Sea Level PressureIn,VisibilityMPH,Wind Direction,Wind SpeedMPH,Gust SpeedMPH,PrecipitationIn,Events,Conditions,WindDirDegrees,DateUTC
12:15 AM,68.0,68.0,100,29.90,1.2,Calm,Calm,-,N/A,,Clear,0,2013-05-19 05:15:00
12:35 AM,68.0,68.0,100,29.90,0.8,Calm,Calm,-,N/A,,Overcast,0,2013-05-19 05:35:00
12:55 AM,68.0,68.0,100,29.89,1.0,Calm,Calm,-,N/A,,Overcast,0,2013-05-19 05:55:00
1:15 AM,66.2,66.2,100,29.89,0.5,Calm,Calm,-,N/A,Fog,Fog,0,2013-05-19 06:15:00
1:35 AM,66.2,66.2,100,29.88,0.2,Calm,Calm,-,N/A,Fog,Fog,0,2013-05-19 06:35:00
1:55 AM,66.2,66.2,100,29.88,0.2,Calm,Calm,-,N/A,Fog,Fog,0,2013-05-19 06:55:00
2:15 AM,66.2,66.2,100,29.88,0.2,Calm,Calm,-,N/A,Fog,Fog,0,2013-05-19 07:15:00
2:35 AM,66.2,66.2,100,29.88,0.2,Calm,Calm,-,N/A,Fog,Fog,0,2013-05-19 07:35:00
2:55 AM,66.2,66.2,100,29.88,0.2,Calm,Calm,-,N/A,Fog,Fog,0,2013-05-19 07:55:00
3:15 AM,66.2,66.2,100,29.88,0.2,Calm,Calm,-,N/A,Fog,Fog,0,2013-05-19 08:15:00
3:35 AM,66.2,66.2,100,29.88,0.2,Calm,Calm,-,N/A,Fog,Fog,0,2013-05-19 08:35:00
3:55 AM,64.4,64.4,100,29.88,1.0,Calm,Calm,-,N/A,,Overcast,0,2013-05-19 08:55:00
4:15 AM,64.4,64.4,100,29.88,0.2,Calm,Calm,-,N/A,Fog,Fog,0,2013-05-19 09:15:00
4:35 AM,64.4,64.4,100,29.86,0.2,Calm,Calm,-,N/A,Fog,Fog,0,2013-05-19 09:35:00
4:55 AM,64.4,64.4,100,29.87,0.2,Calm,Calm,-,N/A,Fog,Fog,0,2013-05-19 09:55:00
5:15 AM,64.4,64.4,100,29.87,0.2,Calm,Calm,-,N/A,Fog,Fog,0,2013-05-19 10:15:00
5:35 AM,64.4,64.4,100,29.88,0.2,Calm,Calm,-,N/A,Fog,Fog,0,2013-05-19 10:35:00
5:55 AM,64.4,64.4,100,29.88,0.2,Calm,Calm,-,N/A,Fog,Fog,0,2013-05-19 10:55:00
6:15 AM,64.4,64.4,100,29.89,0.8,Calm,Calm,-,N/A,,Overcast,0,2013-05-19 11:15:00
6:35 AM,64.4,64.4,100,29.89,1.2,Calm,Calm,-,N/A,,Overcast,0,2013-05-19 11:35:00
6:55 AM,64.4,64.4,100,29.90,1.0,Calm,Calm,-,N/A,,Overcast,0,2013-05-19 11:55:00
7:15 AM,66.2,66.2,100,29.91,1.5,Calm,Calm,-,N/A,,Mostly Cloudy,0,2013-05-19 12:15:00
7:35 AM,66.2,66.2,100,29.91,1.8,Calm,Calm,-,N/A,,Scattered Clouds,0,2013-05-19 12:35:00
7:55 AM,68.0,68.0,100,29.91,2.0,Calm,Calm,-,N/A,,Clear,0,2013-05-19 12:55:00
8:15 AM,69.8,69.8,100,29.91,2.5,Calm,Calm,-,N/A,,Clear,0,2013-05-19 13:15:00
8:35 AM,73.4,73.4,100,29.91,5.0,Calm,Calm,-,N/A,,Clear,0,2013-05-19 13:35:00
8:55 AM,77.0,71.6,83,29.91,7.0,SSE,5.8,-,N/A,,Clear,160,2013-05-19 13:55:00
9:15 AM,78.8,69.8,74,29.90,8.0,South,9.2,-,N/A,,Clear,170,2013-05-19 14:15:00
9:35 AM,78.8,69.8,74,29.90,8.0,South,8.1,-,N/A,,Clear,190,2013-05-19 14:35:00
9:55 AM,80.6,68.0,65,29.90,9.0,SSW,10.4,18.4,N/A,,Clear,200,2013-05-19 14:55:00
10:15 AM,78.8,68.0,69,29.90,9.0,South,8.1,-,N/A,,Clear,180,2013-05-19 15:15:00
10:35 AM,78.8,68.0,69,29.90,8.0,South,9.2,-,N/A,,Clear,190,2013-05-19 15:35:00
10:55 AM,80.6,69.8,70,29.90,8.0,South,8.1,-,N/A,,Clear,170,2013-05-19 15:55:00
11:15 AM,80.6,68.0,65,29.90,9.0,South,8.1,-,N/A,,Clear,190,2013-05-19 16:15:00
11:35 AM,80.6,69.8,70,29.90,9.0,SSE,4.6,-,N/A,,Clear,150,2013-05-19 16:35:00
11:55 AM,80.6,69.8,70,29.90,10.0,South,8.1,-,N/A,,Clear,170,2013-05-19 16:55:00
12:15 PM,80.6,69.8,70,29.89,9.0,SSE,9.2,-,N/A,,Clear,150,2013-05-19 17:15:00
12:35 PM,80.6,68.0,65,29.88,9.0,SSE,6.9,-,N/A,,Clear,150,2013-05-19 17:35:00
12:55 PM,82.4,69.8,66,29.88,10.0,SSE,12.7,-,N/A,,Clear,150,2013-05-19 17:55:00
1:15 PM,82.4,66.2,58,29.88,10.0,SSW,9.2,-,N/A,,Clear,200,2013-05-19 18:15:00
1:35 PM,80.6,68.0,65,29.87,9.0,SSE,5.8,-,N/A,,Clear,160,2013-05-19 18:35:00
1:55 PM,82.4,69.8,66,29.87,8.0,SSE,10.4,-,N/A,,Clear,160,2013-05-19 18:55:00
2:15 PM,80.6,69.8,70,29.86,8.0,SSE,8.1,-,N/A,,Clear,160,2013-05-19 19:15:00
2:35 PM,80.6,68.0,65,29.86,9.0,SSE,8.1,16.1,N/A,,Clear,150,2013-05-19 19:35:00
2:55 PM,82.4,69.8,66,29.85,9.0,South,10.4,-,N/A,,Clear,180,2013-05-19 19:55:00
3:15 PM,82.4,69.8,66,29.85,9.0,SSE,11.5,-,N/A,,Partly Cloudy,160,2013-05-19 20:15:00
3:35 PM,82.4,69.8,66,29.84,9.0,SE,11.5,18.4,N/A,,Clear,140,2013-05-19 20:35:00
3:55 PM,84.2,69.8,62,29.84,9.0,South,8.1,17.3,N/A,,Clear,180,2013-05-19 20:55:00
4:15 PM,84.2,69.8,62,29.83,9.0,SSE,13.8,20.7,N/A,,Clear,150,2013-05-19 21:15:00
4:35 PM,84.2,68.0,58,29.82,9.0,South,9.2,19.6,N/A,,Clear,180,2013-05-19 21:35:00
4:55 PM,84.2,69.8,62,29.81,9.0,SSE,11.5,23.0,N/A,,Clear,150,2013-05-19 21:55:00
5:15 PM,84.2,69.8,62,29.80,10.0,SSE,8.1,18.4,N/A,,Clear,160,2013-05-19 22:15:00
5:35 PM,84.2,69.8,62,29.79,10.0,SSE,10.4,17.3,N/A,,Clear,150,2013-05-19 22:35:00
5:55 PM,84.2,69.8,62,29.78,9.0,SSE,12.7,21.9,N/A,,Clear,150,2013-05-19 22:55:00
6:15 PM,84.2,69.8,62,29.77,9.0,SSE,11.5,16.1,N/A,,Clear,150,2013-05-19 23:15:00
6:35 PM,84.2,69.8,62,29.77,9.0,SSE,12.7,20.7,N/A,,Clear,160,2013-05-19 23:35:00
6:55 PM,84.2,69.8,62,29.78,10.0,SSE,9.2,17.3,N/A,,Clear,160,2013-05-19 23:55:00
7:15 PM,82.4,69.8,66,29.79,9.0,SSE,11.5,17.3,N/A,,Clear,160,2013-05-20 00:15:00
7:35 PM,82.4,69.8,66,29.80,9.0,SSE,9.2,19.6,N/A,,Clear,160,2013-05-20 00:35:00
7:55 PM,82.4,69.8,66,29.81,9.0,SSE,6.9,-,N/A,,Clear,150,2013-05-20 00:55:00
8:15 PM,80.6,69.8,70,29.81,8.0,SSE,6.9,-,N/A,,Clear,160,2013-05-20 01:15:00
8:35 PM,80.6,69.8,70,29.81,8.0,SSE,3.5,-,N/A,,Clear,160,2013-05-20 01:35:00
8:55 PM,78.8,69.8,74,29.81,8.0,Calm,Calm,-,N/A,,Clear,0,2013-05-20 01:55:00
9:15 PM,78.8,69.8,74,29.82,8.0,Calm,Calm,-,N/A,,Clear,0,2013-05-20 02:15:00
9:35 PM,75.2,69.8,83,29.83,8.0,Calm,Calm,-,N/A,,Partly Cloudy,0,2013-05-20 02:35:00
9:55 PM,73.4,69.8,88,29.84,7.0,Calm,Calm,-,N/A,,Partly Cloudy,0,2013-05-20 02:55:00
10:15 PM,73.4,69.8,88,29.84,7.0,Calm,Calm,-,N/A,,Clear,0,2013-05-20 03:15:00
10:35 PM,71.6,69.8,94,29.84,7.0,Calm,Calm,-,N/A,,Clear,0,2013-05-20 03:35:00
10:55 PM,71.6,69.8,94,29.84,6.0,Calm,Calm,-,N/A,,Clear,0,2013-05-20 03:55:00
11:15 PM,71.6,69.8,94,29.84,5.0,Calm,Calm,-,N/A,,Clear,0,2013-05-20 04:15:00
11:35 PM,71.6,69.8,94,29.84,6.0,Calm,Calm,-,N/A,,Clear,0,2013-05-20 04:35:00
11:55 PM,69.8,69.8,100,29.84,5.0,Calm,Calm,-,N/A,,Clear,0,2013-05-20 04:55:00